EW9479 Weather Reports


Display with metric or nautical units.
time (UTC)temp
F
wind
direction
speed
MPH
gust
MPH
rain 1hr
in
rain 24hr
in
rain mn
in
humidity
%
barometer
mb
20260831230048 94 71 1.0 3.0 0.00 0.00 0.00 54 1018.2
20260831224546 94 74 2.0 4.0 0.00 0.00 0.00 54 1018.2
20260831223044 95 108 2.0 4.0 0.00 0.00 0.00 53 1018.3
20260831221551 95 74 2.0 6.0 0.00 0.00 0.00 53 1018.4
20260831220101 95 72 2.0 4.0 0.00 0.00 0.00 54 1018.5
20260831214546 95 46 1.0 4.0 0.00 0.00 0.00 53 1018.6
20260831213042 94 73 2.0 5.0 0.00 0.00 0.00 56 1018.5
20260831211543 93 57 1.0 5.0 0.00 0.00 0.00 56 1018.5
20260831210045 95 71 1.0 3.0 0.00 0.00 0.00 53 1018.6
20260831204552 96 117 0.0 4.0 0.00 0.00 0.00 52 1018.7
20260831203046 95 329 2.0 6.0 0.00 0.00 0.00 54 1018.7
20260831201548 95 59 2.0 5.0 0.00 0.00 0.00 53 1019.1
20260831200053 95 30 3.0 8.0 0.00 0.00 0.00 54 1019.1
20260831194544 96 203 6.0 11.0 0.00 0.00 0.00 51 1019.1
20260831193044 95 310 3.0 7.0 0.00 0.00 0.00 56 1019.4
20260831191548 95 266 3.0 7.0 0.00 0.00 0.00 52 1019.6
20260831190104 95 199 3.0 10.0 0.00 0.00 0.00 54 1019.7
20260831184543 94 232 5.0 11.0 0.00 0.00 0.00 55 1019.9
20260831183043 92 233 1.0 5.0 0.00 0.00 0.00 56 1020.1
20260831181544 92 28 1.0 6.0 0.00 0.00 0.00 59 1020.3
20260831180047 92 288 3.0 5.0 0.00 0.00 0.00 57 1020.5
20260831174547 93 279 2.0 7.0 0.00 0.00 0.00 56 1020.8
20260831173046 93 186 2.0 7.0 0.00 0.00 0.00 57 1021.1
20260831171554 92 284 3.0 8.0 0.00 0.00 0.00 59 1021.2
20260831170046 92 289 2.0 8.0 0.00 0.00 0.00 60 1021.4
20260831164610 92 172 3.0 8.0 0.00 0.00 0.00 60 1021.4
20260831163044 91 210 3.0 9.0 0.00 0.00 0.00 61 1021.5
20260831161555 90 151 6.0 10.0 0.00 0.00 0.00 63 1021.5
20260831160048 90 13 1.0 6.0 0.00 0.00 0.00 66 1021.3
20260831154612 89 319 4.0 9.0 0.00 0.00 0.00 66 1021.5
20260831153057 88 170 3.0 8.0 0.00 0.00 0.00 67 1021.5
20260831151553 88 131 5.0 8.0 0.00 0.00 0.00 68 1021.3
20260831150049 87 222 4.0 9.0 0.00 0.00 0.00 69 1021.3
20260831144606 87 215 4.0 7.0 0.00 0.00 0.00 68 1021.2
20260831143057 86 0 0.0 2.0 0.00 0.00 0.00 71 1021.2
20260831141543 85 205 1.0 4.0 0.00 0.00 0.00 74 1021.3
20260831140051 83 0 1.0 3.0 0.00 0.00 0.00 77 1021.2
20260831134548 81 197 2.0 4.0 0.00 0.00 0.00 78 1021.1
20260831133044 81 0 0.0 1.0 0.00 0.00 0.00 80 1021.3
20260831131543 78 79 0.0 1.0 0.00 0.00 0.00 86 1021.1
20260831130048 74 0 0.0 2.0 0.00 0.00 0.00 92 1021.0
20260831124545 72 85 0.0 1.0 0.00 0.00 0.00 94 1020.9
20260831123044 72 0 0.0 1.0 0.00 0.00 0.00 94 1020.7
20260831121546 71 84 0.0 1.0 0.00 0.00 0.00 95 1020.7
20260831120048 70 0 0.0 0.0 0.00 0.00 0.00 94 1020.4
20260831114544 70 0 0.0 0.0 0.00 0.00 0.00 94 1020.3
20260831113044 70 0 0.0 0.0 0.00 0.00 0.00 94 1019.9
20260831111602 70 0 0.0 0.0 0.00 0.00 0.00 93 1019.9
20260831110052 70 0 0.0 0.0 0.00 0.00 0.00 93 1019.8
20260831104555 70 0 0.0 0.0 0.00 0.00 0.00 93 1019.7
20260831103044 70 0 0.0 0.0 0.00 0.00 0.00 93 1019.6
20260831101551 70 0 0.0 0.0 0.00 0.00 0.00 93 1019.5
20260831100048 70 0 0.0 0.0 0.00 0.00 0.00 93 1019.3
20260831094544 70 0 0.0 0.0 0.00 0.00 0.00 93 1019.3
20260831093054 70 0 0.0 0.0 0.00 0.00 0.00 92 1019.3
20260831091545 70 0 0.0 0.0 0.00 0.00 0.00 92 1019.1
20260831090046 70 0 0.0 0.0 0.00 0.00 0.00 92 1018.9
20260831084544 71 0 0.0 0.0 0.00 0.00 0.00 92 1018.9
20260831083053 71 0 0.0 0.0 0.00 0.00 0.00 92 1018.8
20260831081547 71 0 0.0 0.0 0.00 0.00 0.00 92 1018.7
20260831080047 71 0 0.0 0.0 0.00 0.00 0.00 91 1018.7
20260831074545 71 0 0.0 0.0 0.00 0.00 0.00 91 1018.7
20260831073047 71 0 0.0 0.0 0.00 0.00 0.00 91 1018.9
20260831071545 72 0 0.0 0.0 0.00 0.00 0.00 91 1018.9
20260831070047 72 0 0.0 0.0 0.00 0.00 0.00 90 1019.0
20260831064554 72 0 0.0 0.0 0.00 0.00 0.00 90 1019.1
20260831063044 73 0 0.0 0.0 0.00 0.00 0.00 89 1019.2
20260831061545 73 0 0.0 0.0 0.00 0.00 0.00 89 1019.2
20260831060055 73 0 0.0 0.0 0.00 0.00 0.00 88 1019.3
20260831054552 74 0 0.0 0.0 0.00 0.00 0.00 88 1019.2
20260831053047 74 0 0.0 0.0 0.00 0.00 0.00 87 1019.1
20260831051549 75 0 0.0 0.0 0.00 0.00 0.00 86 1019.1
20260831050048 76 0 0.0 0.0 0.00 0.00 0.00 85 1019.1
20260831044548 76 0 0.0 0.0 0.00 0.00 0.00 84 1019.1
20260831043046 77 0 0.0 1.0 0.00 0.00 0.00 83 1019.3
20260831041558 77 0 0.0 0.0 0.00 0.00 0.00 83 1019.3
20260831040045 77 0 0.0 0.0 0.00 0.00 0.00 82 1019.3
20260831034544 78 0 0.0 0.0 0.00 0.00 0.00 82 1019.2
20260831033053 78 0 0.0 0.0 0.00 0.00 0.00 81 1019.1
20260831031545 78 0 0.0 0.0 0.00 0.00 0.00 81 1019.1
20260831030046 79 0 0.0 0.0 0.00 0.00 0.00 79 1019.1
20260831024554 80 0 0.0 0.0 0.00 0.00 0.00 78 1018.9
20260831023054 80 0 0.0 0.0 0.00 0.00 0.00 78 1018.8
20260831021545 81 0 0.0 1.0 0.00 0.00 0.00 77 1018.6
20260831020047 82 74 0.0 1.0 0.00 0.00 0.00 76 1018.6
20260831014544 82 0 0.0 0.0 0.00 0.00 0.00 74 1018.7
20260831013047 83 0 0.0 1.0 0.00 0.00 0.00 73 1018.4
20260831011548 83 0 0.0 0.0 0.00 0.00 0.00 73 1018.3
20260831010047 84 0 0.0 0.0 0.00 0.00 0.00 71 1018.2
20260831004545 85 0 0.0 1.0 0.00 0.00 0.00 71 1018.0
20260831003051 87 0 0.0 0.0 0.00 0.00 0.00 68 1018.0
20260831001546 89 0 0.0 1.0 0.00 0.00 0.00 64 1018.0
20260831000046 91 0 0.0 1.0 0.00 0.00 0.00 61 1017.9
20260830234601 92 68 0.0 4.0 0.00 0.00 0.00 59 1017.8
20260830233045 92 130 0.0 3.0 0.00 0.00 0.00 58 1017.8
20260830231549 92 66 0.0 3.0 0.00 0.00 0.00 59 1017.9